Location: ?
(35.3436°N, 139.3168°E)
Time: 07:34:31
(UTC+00:00)

Aureole 3 - Pass Details

Date: 29 October 2020
Orbit: 382 x 1231 km, 82.5° (Epoch: 02 December)

Event Time Altitude Azimuth Distance (km) Brightness Sun altitude
Rises 19:34:42 0° 355° (N) 2,892 6.9 -18.4°
Reaches altitude 10° 19:36:42 10° 357° (N) 2,094 6.2 -18.0°
Maximum altitude 19:41:25 76° 83° (E) 815 4.2 -17.0°
Drops below altitude 10° 19:47:25 10° 170° (S) 2,652 7.0 -15.8°
Sets 19:50:12 0° 171° (S) 3,725 7.7 -15.2°
